Temp
-1 -1 -1 -1 -1 -1 -1 -1 -1 -1 -2 -2 -2 -2 -2 -2 -3 -3 -3 -3 -3 -3 -4 -4 -4 -4 -4 -4 -4 -5 -5 -5 -5 -5 -6 -6 -6 -6 -7 -7 -7 -7
-0 -1 -1 -1 -1 -1 -2 -2 -2 -2 -2 -2 -2 -3 -3 -3 -3 -3 -3 -4 -4 -4 -4 -4 -5 -5 -5 -5 -5 -6 -6 -6 -6 -6 -7 -7 -7 -7 -8 -8 -8 -8
-1 -1 -1 -2 -2 -2 -2 -2 -2 -2 -3 -3 -3 -3 -3 -3 -4 -4 -4 -4 -4 -4 -5 -5 -5 -6 -6 -6 -6 -7 -7 -7 -7 -8 -8 -8 -8 -9 -9 -9 -9 -9
-1 -2 -2 -2 -2 -2 -2 -3 -3 -3 -3 -3 -3 -4 -4 -4 -4 -4 -4 -5 -5 -5 -5 -6 -6 -6 -7 -7 -7 -7 -7 -8 -8 -8 -8 -9 -9 -9 -9 -9 -9 -10
-2 -2 -2 -3 -3 -3 -3 -3 -3 -3 -4 -4 -4 -4 -4 -4 -5 -5 -5 -5 -5 -6 -6 -6 -7 -7 -7 -7 -7 -8 -8 -8 -8 -8 -9 -9 -9 -9 -10 -10 -10 -10
-2 -3 -3 -3 -3 -3 -3 -4 -4 -4 -4 -4 -5 -5 -5 -5 -5 -6 -6 -6 -6 -7 -7 -7 -7 -7 -8 -8 -8 -8 -8 -9 -9 -9 -9 -10 -10 -10 -10 -10 -11 -11
-3 -3 -3 -4 -4 -4 -4 -4 -4 -4 -5 -5 -5 -5 -6 -6 -6 -7 -7 -7 -7 -8 -8 -8 -8 -8 -8 -9 -9 -9 -9 -9 -10 -10 -10 -10 -10 -11 -11 -11 -11 -11
-3 -4 -4 -4 -4 -4 -5 -5 -5 -5 -5 -6 -6 -6 -6 -7 -7 -8 -8 -8 -8 -9 -9 -9 -9 -9 -9 -9 -10 -10 -10 -10 -10 -11 -11 -11 -11 -11 -11 -11 -12 -12
-4 -4 -4 -5 -5 -5 -5 -5 -6 -6 -6 -6 -7 -7 -7 -8 -8 -8 -9 -9 -9 -9 -10 -10 -10 -10 -10 -10 -10 -10 -11 -11 -11 -11 -11 -12 -12 -12 -12 -12 -12 -12
-4 -5 -5 -5 -5 -6 -6 -6 -6 -6 -7 -7 -7 -8 -8 -8 -9 -9 -9 -10 -10 -10 -10 -10 -10 -10 -11 -11 -11 -11 -11 -11 -12 -12 -12 -12 -12 -12 -12 -12 -12 -12
-5 -5 -5 -6 -6 -6 -6 -6 -7 -7 -7 -8 -8 -8 -9 -9 -9 -10 -10 -10 -10 -11 -11 -11 -11 -11 -11 -11 -11 -12 -12 -12 -12 -12 -12 -13 -13 -13 -13 -13 -13 -13
-5 -6 -6 -6 -6 -7 -7 -7 -7 -8 -8 -8 -8 -9 -9 -9 -10 -10 -10 -11 -11 -11 -11 -11 -11 -11 -12 -12 -12 -12 -12 -12 -13 -13 -13 -13 -13 -13 -13 -13 -13 -13
-6 -6 -6 -7 -7 -7 -8 -8 -8 -8 -8 -9 -9 -9 -10 -10 -10 -11 -11 -11 -11 -11 -12 -12 -12 -12 -12 -12 -12 -12 -13 -13 -13 -13 -13 -13 -13 -13 -13 -14 -14 -14
-6 -7 -7 -7 -8 -8 -8 -8 -9 -9 -9 -9 -9 -10 -10 -11 -11 -11 -11 -11 -12 -12 -12 -12 -12 -12 -12 -13 -13 -13 -13 -13 -13 -13 -13 -13 -14 -14 -14 -14 -14 -14
-7 -7 -8 -8 -8 -8 -9 -9 -9 -9 -9 -10 -10 -10 -11 -11 -11 -11 -12 -12 -12 -12 -12 -12 -12 -13 -13 -13 -13 -13 -13 -13 -13 -14 -14 -14 -14 -14 -14 -14 -14 -15
-7 -8 -8 -8 -9 -9 -9 -9 -9 -10 -10 -10 -11 -11 -11 -12 -12 -12 -12 -12 -12 -12 -12 -13 -13 -13 -13 -13 -13 -13 -13 -14 -14 -14 -14 -14 -14 -14 -14 -15 -15 -15
-8 -8 -8 -9 -9 -9 -9 -10 -10 -10 -10 -11 -11 -11 -12 -12 -12 -12 -12 -12 -12 -12 -13 -13 -13 -13 -13 -13 -14 -14 -14 -14 -14 -14 -14 -14 -14 -15 -15 -15 -15 -15
-8 -8 -9 -9 -9 -10 -10 -10 -10 -11 -11 -11 -11 -12 -12 -12 -12 -12 -12 -12 -12 -13 -13 -13 -13 -13 -14 -14 -14 -14 -14 -14 -14 -14 -14 -14 -15 -15 -15 -15 -15 -15
-8 -8 -9 -9 -10 -10 -10 -11 -11 -11 -11 -11 -12 -12 -12 -12 -12 -12 -12 -13 -13 -13 -13 -13 -14 -14 -14 -14 -14 -14 -14 -14 -14 -14 -15 -15 -15 -15 -15 -15 -15 -16
-8 -8 -9 -10 -10 -10 -11 -11 -11 -11 -11 -12 -12 -12 -12 -12 -12 -13 -13 -13 -13 -13 -13 -14 -14 -14 -14 -14 -14 -14 -14 -15 -15 -15 -15 -15 -15 -15 -15 -15 -16 -16
-8 -8 -9 -10 -10 -11 -11 -11 -11 -11 -12 -12 -12 -12 -12 -13 -13 -13 -13 -13 -13 -13 -14 -14 -14 -14 -14 -14 -14 -15 -15 -15 -15 -15 -15 -15 -15 -15 -16 -16 -16 -16
-8 -9 -10 -10 -11 -11 -11 -11 -11 -12 -12 -12 -12 -12 -13 -13 -13 -13 -13 -13 -13 -14 -14 -14 -14 -14 -14 -15 -15 -15 -15 -15 -15 -15 -15 -15 -15 -15 -16 -16 -16 -17
-9 -10 -10 -11 -11 -11 -11 -11 -12 -12 -12 -12 -13 -13 -13 -13 -13 -13 -13 -13 -14 -14 -14 -14 -14 -15 -15 -15 -15 -15 -15 -15 -15 -15 -15 -15 -15 -16 -16 -16 -16 -17
-10 -10 -11 -11 -11 -11 -11 -12 -12 -12 -12 -13 -13 -13 -13 -13 -13 -13 -14 -14 -14 -14 -14 -14 -15 -15 -15 -15 -15 -15 -15 -15 -15 -15 -15 -15 -16 -16 -16 -16 -17 -17
-11 -11 -11 -11 -11 -12 -12 -12 -12 -12 -13 -13 -13 -13 -13 -13 -14 -14 -14 -14 -14 -14 -14 -14 -15 -15 -15 -15 -15 -15 -15 -15 -15 -15 -15 -16 -16 -16 -16 -16 -17 -17
-11 -11 -11 -11 -12 -12 -12 -12 -13 -13 -13 -13 -13 -14 -14 -14 -14 -14 -14 -14 -14 -14 -14 -14 -15 -15 -15 -15 -15 -15 -15 -15 -15 -15 -16 -16 -16 -16 -16 -16 -17 -17
Height
3129 3129 3129 3129 3129 3128 3128 3127 3126 3124 3123 3122 3121 3120 3120 3119 3118 3117 3116 3115 3114 3113 3112 3111 3109 3108 3106 3104 3103 3101 3099 3098 3096 3095 3093 3091 3090 3088 3087 3085 3083 3082
3126 3126 3126 3126 3125 3125 3124 3123 3122 3120 3119 3118 3117 3116 3115 3115 3114 3113 3112 3111 3110 3108 3107 3106 3104 3102 3101 3099 3097 3095 3094 3092 3090 3089 3087 3086 3084 3083 3081 3080 3078 3077
3123 3123 3122 3122 3122 3121 3120 3119 3117 3116 3115 3114 3113 3112 3111 3110 3109 3108 3107 3106 3105 3103 3102 3100 3099 3097 3095 3093 3092 3090 3089 3087 3085 3084 3082 3081 3079 3078 3076 3074 3073 3071
3119 3119 3118 3118 3118 3117 3116 3114 3113 3112 3111 3110 3109 3108 3107 3106 3105 3104 3103 3102 3100 3099 3097 3096 3094 3092 3091 3089 3088 3086 3084 3083 3081 3079 3078 3076 3074 3073 3071 3069 3068 3066
3115 3115 3114 3114 3113 3112 3111 3110 3109 3108 3106 3105 3104 3103 3102 3101 3101 3100 3099 3097 3096 3095 3093 3091 3090 3088 3087 3085 3083 3082 3080 3078 3077 3075 3073 3071 3069 3068 3066 3064 3063 3061
3111 3110 3110 3109 3109 3108 3106 3105 3104 3103 3102 3101 3100 3099 3098 3097 3096 3095 3094 3093 3092 3090 3089 3087 3086 3084 3082 3081 3079 3077 3076 3074 3072 3070 3068 3067 3065 3063 3062 3060 3058 3057
3106 3106 3106 3105 3104 3103 3102 3101 3100 3099 3098 3097 3096 3095 3094 3093 3092 3091 3090 3089 3087 3086 3085 3083 3082 3080 3078 3077 3075 3073 3072 3070 3068 3066 3065 3063 3061 3059 3058 3056 3054 3053
3102 3102 3102 3101 3100 3099 3098 3097 3096 3095 3094 3093 3092 3091 3090 3089 3088 3087 3085 3084 3083 3082 3081 3079 3077 3076 3074 3072 3071 3069 3068 3066 3064 3063 3061 3059 3058 3056 3054 3053 3051 3049
3098 3098 3098 3097 3096 3095 3094 3093 3092 3091 3090 3089 3088 3087 3086 3085 3083 3082 3081 3080 3079 3078 3076 3075 3073 3071 3070 3068 3067 3065 3064 3062 3060 3059 3057 3056 3054 3052 3051 3049 3047 3045
3094 3094 3093 3092 3092 3091 3090 3089 3087 3086 3085 3084 3084 3083 3081 3081 3079 3078 3077 3076 3075 3073 3072 3070 3068 3067 3065 3064 3063 3061 3060 3058 3056 3055 3053 3052 3050 3048 3047 3045 3043 3041
3090 3090 3089 3088 3087 3086 3085 3084 3083 3082 3081 3080 3080 3079 3078 3077 3075 3074 3073 3072 3071 3069 3067 3066 3064 3063 3061 3060 3059 3057 3056 3054 3053 3051 3050 3048 3046 3044 3042 3040 3038 3036
3086 3086 3085 3084 3083 3082 3081 3080 3079 3078 3077 3076 3076 3075 3074 3073 3071 3070 3069 3068 3066 3064 3063 3061 3060 3058 3057 3056 3054 3053 3052 3050 3049 3047 3046 3044 3042 3040 3038 3036 3034 3032
3082 3081 3080 3079 3078 3077 3076 3075 3075 3074 3073 3072 3071 3070 3069 3068 3067 3066 3065 3063 3062 3060 3059 3057 3056 3054 3053 3052 3050 3049 3048 3046 3045 3043 3041 3040 3038 3036 3034 3031 3030 3027
3077 3077 3076 3075 3074 3073 3072 3071 3070 3069 3068 3068 3067 3066 3065 3064 3063 3062 3060 3059 3058 3056 3055 3053 3052 3051 3049 3048 3046 3045 3044 3042 3041 3039 3037 3035 3033 3031 3029 3027 3025 3023
3073 3072 3071 3070 3069 3068 3068 3067 3066 3065 3064 3063 3062 3062 3061 3060 3058 3057 3056 3055 3053 3052 3051 3049 3048 3047 3045 3044 3042 3041 3040 3038 3036 3035 3032 3031 3029 3026 3025 3022 3020 3018
3068 3068 3067 3066 3065 3064 3063 3062 3061 3060 3060 3059 3058 3057 3056 3055 3054 3053 3052 3051 3050 3048 3047 3045 3044 3043 3041 3039 3038 3036 3035 3034 3032 3030 3028 3026 3024 3022 3020 3018 3016 3014
3064 3063 3062 3061 3060 3060 3058 3057 3056 3056 3055 3055 3054 3053 3052 3051 3050 3049 3048 3047 3045 3044 3043 3041 3040 3038 3037 3035 3033 3032 3030 3029 3027 3025 3024 3022 3020 3018 3016 3014 3012 3010
3059 3058 3057 3057 3056 3055 3054 3052 3052 3051 3051 3051 3050 3049 3048 3047 3046 3045 3044 3042 3041 3040 3038 3037 3035 3034 3032 3030 3029 3027 3025 3024 3023 3021 3019 3017 3015 3013 3011 3009 3007 3005
3054 3053 3053 3052 3052 3051 3049 3048 3048 3047 3047 3047 3046 3045 3044 3043 3041 3040 3039 3038 3037 3035 3034 3032 3031 3029 3028 3026 3024 3023 3021 3019 3018 3016 3014 3013 3011 3009 3007 3005 3002 3000
3050 3049 3049 3048 3047 3046 3045 3044 3044 3044 3043 3042 3041 3040 3039 3038 3037 3036 3035 3034 3032 3031 3029 3028 3026 3025 3023 3021 3020 3018 3016 3015 3013 3012 3010 3008 3007 3005 3002 3000 2998 2996
3045 3045 3045 3044 3043 3042 3041 3041 3040 3040 3039 3038 3037 3036 3035 3034 3033 3032 3031 3029 3028 3027 3025 3024 3022 3020 3019 3017 3016 3014 3012 3011 3009 3008 3006 3004 3002 3000 2998 2996 2994 2991
3041 3041 3040 3039 3039 3038 3037 3037 3036 3035 3034 3033 3032 3032 3031 3030 3029 3027 3026 3025 3024 3022 3021 3019 3018 3016 3015 3013 3011 3010 3008 3006 3005 3003 3002 3000 2998 2996 2994 2991 2989 2987
3037 3036 3036 3035 3035 3034 3033 3033 3032 3031 3030 3029 3028 3027 3026 3025 3024 3023 3022 3021 3019 3018 3017 3015 3013 3011 3010 3009 3007 3005 3003 3002 3000 2999 2997 2995 2993 2991 2989 2987 2985 2982
3032 3032 3031 3031 3030 3030 3029 3028 3027 3026 3025 3024 3024 3023 3022 3021 3020 3019 3018 3016 3015 3014 3012 3011 3009 3007 3005 3004 3002 3001 2999 2997 2996 2994 2992 2990 2988 2986 2984 2982 2980 2977
3027 3027 3026 3026 3025 3025 3024 3023 3022 3022 3021 3020 3019 3018 3017 3016 3015 3014 3013 3012 3010 3009 3007 3006 3004 3002 3001 2999 2998 2996 2994 2992 2991 2989 2987 2985 2983 2981 2979 2977 2975 2972
3022 3021 3021 3021 3021 3020 3019 3018 3017 3017 3016 3015 3015 3013 3013 3012 3011 3010 3008 3007 3006 3004 3003 3001 3000 2998 2996 2995 2993 2992 2990 2988 2986 2985 2983 2981 2978 2976 2974 2972 2970 2967
Wind_Speed
28 29 30 31 32 33 34 35 36 36 37 37 36 37 37 38 39 40 41 42 43 43 42 42 41 41 41 41 41 41 41 41 41 41 41 41 41 41 41 41 41 41
31 32 33 34 35 36 36 37 37 38 37 37 37 37 38 39 41 42 42 43 43 42 42 41 41 41 41 41 41 41 41 41 41 41 41 41 41 41 41 41 41 41
34 34 35 36 36 37 38 38 38 38 38 38 38 39 40 41 42 43 44 44 43 43 42 42 42 42 41 41 41 41 41 41 41 41 41 41 41 40 41 41 41 41
35 36 36 37 37 38 38 39 39 39 39 39 40 41 42 43 45 45 45 44 43 43 43 43 43 42 42 42 42 42 43 42 42 42 42 42 42 42 42 42 42 42
36 37 37 38 38 39 39 40 40 40 41 41 42 43 44 45 46 45 44 43 42 43 43 43 43 43 43 43 44 44 44 44 43 43 43 43 43 43 42 42 42 42
37 38 38 38 39 39 40 41 41 42 43 43 44 45 46 46 45 44 42 42 42 42 42 43 43 44 44 44 44 44 44 43 43 43 42 42 42 42 42 41 41 41
38 38 38 39 39 40 41 41 43 43 44 45 46 47 47 46 44 42 41 41 42 42 42 43 44 44 44 44 43 43 42 42 41 41 41 41 40 40 40 40 40 41
39 39 39 39 40 41 41 42 43 44 45 46 47 47 46 45 43 42 42 42 42 42 42 42 43 42 42 42 41 41 41 40 40 40 39 39 38 38 38 39 40 41
39 39 39 40 40 41 42 43 44 45 46 47 47 47 45 44 44 43 42 42 41 41 41 41 41 41 41 40 40 40 39 39 38 38 37 36 36 37 38 39 40 41
39 39 40 40 41 42 42 43 44 45 46 47 46 46 45 44 44 43 42 41 40 40 40 39 39 40 39 39 39 38 38 37 36 36 35 35 36 37 38 39 40 41
40 40 40 41 41 42 43 44 45 45 46 46 45 45 44 44 44 43 42 41 40 39 38 38 39 39 39 38 37 37 36 35 35 35 35 36 37 38 39 40 40 41
40 41 41 42 42 43 44 44 45 45 45 45 44 43 43 44 43 42 41 39 38 38 37 38 38 38 38 37 36 35 35 34 34 35 36 37 38 38 39 40 41 42
41 41 42 42 43 43 44 44 45 45 45 44 44 43 43 43 42 40 39 37 37 37 37 38 38 37 37 36 35 35 34 34 35 36 37 38 38 39 40 41 42 42
42 42 42 42 43 44 44 45 45 45 45 44 43 42 42 41 40 38 37 36 36 36 37 37 37 37 36 35 35 35 35 35 36 37 38 39 40 40 41 42 42 43
42 43 43 43 44 44 45 45 45 45 45 43 42 41 40 39 38 37 36 36 36 36 37 37 37 37 36 36 36 36 36 37 38 38 39 40 41 41 42 43 43 44
43 44 44 45 45 45 45 45 45 45 44 42 40 39 39 38 37 37 36 36 36 37 37 37 37 37 37 36 37 37 38 39 39 40 41 41 42 43 43 44 44 45
45 46 46 46 46 45 45 45 44 43 42 40 38 38 38 37 36 36 36 36 37 37 37 37 37 37 37 38 38 39 39 40 41 42 42 43 43 43 44 45 45 46
47 48 48 47 45 44 44 43 42 41 39 38 38 38 37 37 36 35 36 37 37 37 37 37 37 38 38 39 40 40 41 42 42 43 43 43 44 44 45 45 46 46
48 49 48 46 45 43 43 42 40 39 38 38 38 37 36 36 35 36 36 37 37 37 37 38 38 39 39 40 41 41 42 43 43 44 44 44 44 44 45 45 46 46
49 49 48 45 43 42 41 39 38 38 38 38 37 36 36 35 35 36 37 37 37 37 37 38 39 39 40 41 41 42 43 44 44 44 44 43 43 44 44 45 45 45
48 47 45 44 42 40 38 38 38 39 38 37 36 36 36 36 36 36 37 37 37 37 37 38 39 39 40 41 42 42 43 43 43 43 42 42 42 43 43 44 45 45
44 43 42 41 39 39 39 39 39 38 37 36 36 36 36 36 36 36 36 37 38 37 37 38 39 40 40 41 41 42 42 42 41 41 41 41 42 42 43 44 44 45
40 40 39 39 39 39 39 38 37 36 36 36 36 36 36 36 36 36 37 38 38 37 37 38 39 40 40 40 40 40 40 39 39 39 40 40 41 42 43 44 44 45
37 37 38 38 38 38 37 36 35 36 36 37 37 37 37 36 37 37 38 38 38 38 38 37 38 39 38 38 38 38 38 38 38 39 40 40 41 42 43 44 44 46
34 35 36 36 35 34 33 34 36 36 37 37 37 37 37 37 38 38 38 38 38 38 37 37 37 37 37 36 36 37 37 38 38 39 39 40 41 42 43 44 45 46
32 33 33 33 32 32 33 35 36 37 37 38 38 38 38 38 39 39 39 39 39 38 37 36 36 36 36 36 36 37 38 38 38 39 39 40 41 42 43 44 46 47
Wind_Direction
278 279 279 279 279 278 278 278 278 278 279 280 282 284 287 291 294 298 300 302 302 301 300 299 299 299 299 299 299 299 299 299 299 299 299 298 298 297 297 296 295 294
281 281 280 279 278 278 278 278 279 279 280 283 285 288 292 295 298 301 302 303 302 302 301 301 302 302 303 303 303 303 303 303 302 302 301 300 299 298 297 296 295 294
278 278 277 277 277 277 277 279 280 281 283 286 289 293 297 299 301 303 303 303 303 302 303 304 305 306 306 306 306 305 305 304 303 302 301 300 299 298 297 296 295 294
276 276 276 276 277 278 280 281 282 284 286 289 293 297 300 302 303 303 303 303 303 303 304 305 306 306 306 306 305 305 304 303 302 301 301 300 299 299 298 297 297 296
276 276 277 277 279 281 282 283 284 286 289 292 296 299 302 303 303 302 302 302 303 304 305 305 305 305 305 305 304 304 303 303 302 302 301 301 300 300 299 299 298 298
276 277 278 280 281 283 284 285 287 289 292 295 299 301 303 303 303 302 302 304 305 306 306 305 305 305 305 304 303 303 303 302 302 302 301 300 300 300 299 299 300 300
276 277 279 281 283 284 285 287 289 291 294 297 300 302 303 304 303 303 304 306 307 307 306 306 305 304 303 302 302 301 301 301 301 300 299 299 299 299 300 300 301 301
276 278 280 282 283 284 286 288 290 293 296 298 301 302 304 304 304 305 307 308 308 307 306 305 303 302 301 300 300 300 300 299 299 298 297 297 298 299 300 301 301 301
276 278 280 282 283 284 286 289 292 294 297 299 301 303 305 305 306 306 307 308 307 306 305 303 301 300 300 300 300 299 299 298 297 297 297 298 299 300 300 301 301 301
276 278 280 281 283 285 287 290 293 295 297 299 301 303 304 305 305 306 306 307 306 305 304 302 300 300 300 300 299 298 297 297 297 297 298 299 300 301 301 301 301 301
276 278 279 281 283 286 288 291 292 294 296 299 301 301 302 303 303 303 304 305 305 304 303 301 300 300 300 300 299 298 297 296 297 298 299 301 302 302 303 303 303 303
276 277 279 281 284 286 288 290 292 294 296 298 299 298 300 301 301 302 303 304 304 303 302 301 300 300 299 299 298 297 296 296 297 299 300 302 303 303 304 304 304 304
276 277 280 282 284 286 288 290 291 293 295 296 296 296 298 299 300 301 303 304 303 302 301 300 299 298 298 298 297 296 295 296 298 300 301 302 303 304 304 304 304 305
276 278 281 283 285 286 288 289 290 292 293 293 294 296 297 298 300 302 303 303 302 301 299 298 298 298 298 297 296 295 295 297 298 300 301 302 303 304 304 305 305 306
277 279 281 283 284 286 287 288 289 290 290 291 293 295 297 298 300 302 302 302 300 299 298 298 298 298 298 297 296 295 296 298 299 300 301 302 303 304 305 305 306 306
278 280 281 282 284 285 285 286 286 287 288 290 293 295 297 298 300 301 300 300 298 298 298 298 299 299 298 297 297 296 297 298 299 300 301 301 303 304 305 306 306 306
278 279 280 281 282 282 283 283 284 285 287 290 293 295 297 298 299 299 298 298 298 299 299 300 300 300 299 299 298 298 298 299 299 300 300 302 304 305 306 306 306 306
276 277 278 279 279 280 280 280 282 285 288 292 294 295 295 296 296 297 297 298 299 300 301 301 301 301 300 300 299 299 299 299 300 300 301 303 304 305 306 306 305 306
274 275 276 276 277 276 276 278 282 286 290 292 293 293 294 294 295 295 297 299 300 301 302 302 302 302 301 301 300 300 300 300 301 302 303 304 305 305 305 305 306 306
272 273 274 274 273 273 275 279 284 288 290 290 290 290 291 292 293 295 297 299 300 301 302 302 302 302 301 300 300 300 301 301 302 303 303 304 305 305 305 306 306 307
270 271 272 271 271 273 277 281 285 287 288 287 287 288 289 291 293 295 297 298 300 301 301 301 300 300 300 300 300 301 301 302 303 303 304 304 305 305 306 306 306 306
269 269 269 269 271 275 279 282 284 285 284 284 285 286 288 290 292 294 296 297 298 299 299 299 299 298 299 299 300 301 301 302 303 304 304 305 306 306 306 306 306 306
268 268 269 270 273 276 279 281 282 282 281 282 284 285 286 289 291 292 294 295 296 296 296 296 296 297 298 299 299 301 301 302 303 304 304 305 305 305 306 306 306 305
267 267 269 271 273 276 278 279 279 279 279 280 282 283 286 288 289 290 291 292 293 293 294 294 294 295 297 298 299 300 301 301 302 303 303 304 305 305 306 306 305 305
266 267 270 272 275 277 278 277 276 276 278 279 280 282 284 285 285 287 289 290 290 290 291 292 293 294 295 297 297 298 299 300 301 301 302 303 304 305 305 305 305 304
269 271 273 275 277 277 275 274 274 275 277 278 280 281 281 282 283 285 286 287 287 288 289 290 291 292 293 295 296 297 298 299 300 301 302 303 304 305 305 304 304 304